CST,Max TemperatureF,Mean TemperatureF,Min TemperatureF,Max Dew PointF,MeanDew PointF,Min DewpointF,Max Humidity, Mean Humidity, Min Humidity, Max Sea Level PressureIn, Mean Sea Level PressureIn, Min Sea Level PressureIn, Max VisibilityMiles, Mean VisibilityMiles, Min VisibilityMiles, Max Wind SpeedMPH, Mean Wind SpeedMPH, Max Gust SpeedMPH,PrecipitationIn, CloudCover, Events, WindDirDegrees
2007-12-1,76,60,44,65,52,42,93,80,52,30.27,30.17,30.06,10,6,0,14,3,18,0.00,3,Fog,151
2007-12-2,82,72,62,70,66,47,90,79,54,30.27,30.11,30.05,10,8,1,17,9,25,0.11,8,Rain,209
2007-12-3,62,48,33,44,32,25,82,57,29,30.48,30.40,30.30,10,10,10,20,11,28,0.00,0,,360
2007-12-4,64,47,30,39,31,26,89,64,25,30.31,30.10,29.92,10,10,7,8,2,,0.00,0,,178
2007-12-5,77,58,38,45,40,35,89,62,29,30.06,29.91,29.85,10,9,5,13,2,21,0.00,0,,355
2007-12-6,62,50,38,46,37,30,80,63,46,30.19,30.10,30.05,10,10,7,13,8,,0.00,0,,90
2007-12-7,79,64,48,68,57,45,94,84,60,30.13,30.06,30.00,10,5,0,12,6,20,0.00,6,Fog-Rain,138
2007-12-8,83,75,66,70,67,64,94,81,54,30.19,30.13,30.05,10,8,2,13,7,18,T,5,,152
2007-12-9,83,74,65,69,66,62,94,80,56,30.22,30.17,30.13,10,7,1,13,7,22,0.01,4,Rain,140
2007-12-10,83,73,63,67,64,61,94,85,53,30.24,30.17,30.12,10,5,0,10,3,,0.00,5,Fog,143
2007-12-11,82,76,69,68,66,64,90,79,54,30.16,30.12,30.07,10,9,6,16,9,23,0.00,6,,150
2007-12-12,83,72,61,68,64,59,96,79,52,30.15,30.09,30.04,10,8,2,10,5,,0.00,6,,191
2007-12-13,62,57,52,59,51,48,94,85,77,30.21,30.15,30.06,10,7,2,14,7,21,0.22,8,Rain,346
2007-12-14,56,54,51,51,48,46,86,82,77,30.22,30.14,30.00,10,9,5,8,6,,0.00,8,,58
2007-12-15,70,55,40,65,53,28,94,81,49,30.12,29.88,29.80,10,6,0,21,9,36,0.86,7,Fog-Rain,240
2007-12-16,51,42,32,30,27,25,85,63,38,30.39,30.28,30.14,10,10,10,18,11,28,0.00,1,,324
2007-12-17,54,41,28,34,28,24,93,67,32,30.46,30.37,30.30,10,9,2,8,1,,0.00,0,,138
2007-12-18,62,51,40,54,45,32,83,71,60,30.31,30.21,30.15,10,10,10,13,6,,0.00,7,,152
2007-12-19,70,65,59,63,59,54,94,89,76,30.19,30.12,30.01,10,4,0,7,5,,0.01,6,Fog-Rain,139
2007-12-20,77,67,56,64,58,46,94,79,47,30.00,29.84,29.73,10,7,1,20,7,28,1.73,5,Rain,215
2007-12-21,70,58,46,58,52,43,93,81,61,29.97,29.91,29.86,10,8,4,14,3,,0.00,2,,134
2007-12-22,71,57,43,64,54,30,94,80,47,30.17,29.90,29.77,10,6,0,20,11,29,0.35,6,Rain,156
2007-12-23,52,42,31,30,25,17,85,58,27,30.42,30.31,30.20,10,10,10,18,9,29,0.00,0,,332
2007-12-24,53,41,29,28,26,19,89,65,27,30.33,30.28,30.23,10,10,10,8,2,,0.00,2,,61
2007-12-25,60,44,27,32,27,23,92,62,25,30.25,30.15,30.03,10,10,6,12,2,16,0.00,0,,102
2007-12-26,55,44,33,52,43,30,94,83,76,30.03,29.89,29.72,10,9,1,18,5,24,0.32,7,Rain,295
2007-12-27,50,47,43,43,39,36,80,75,68,30.12,30.01,29.90,10,10,10,12,6,,0.00,8,,74
2007-12-28,60,51,42,52,45,38,94,79,53,30.18,30.01,29.85,10,8,2,21,7,34,0.14,4,Rain,326
2007-12-29,56,47,38,42,38,34,86,69,45,30.22,30.13,30.05,10,10,10,6,3,,0.00,4,,21
2007-12-30,65,52,39,43,39,36,89,69,36,30.09,30.03,29.99,10,10,5,5,1,,0.00,0,,303
2007-12-31,70,52,34,45,36,22,93,59,31,30.35,30.10,30.01,10,8,4,15,4,24,0.00,0,,229